Time,TemperatureF,DewpointF,PressureIn,WindDirection,WindDirectionDegrees,WindSpeedMPH,WindSpeedGustMPH,Humidity,HourlyPrecipIn,Conditions,Clouds,dailyrainin,SoftwareType,DateUTC
2013-03-28 08:54:00,61.7,30.8,30.15,WSW,248,4.0,4.0,31,0.00,,,0.00,VWS V14.00,2013-03-28 15:54:00,
2013-03-28 08:55:00,61.7,30.8,30.15,West,270,3.1,3.1,31,0.00,,,0.00,VWS V14.00,2013-03-28 15:55:00,
2013-03-28 08:56:00,62.1,30.3,30.15,West,270,3.1,3.1,30,0.00,,,0.00,VWS V14.00,2013-03-28 15:56:00,
2013-03-28 08:57:00,62.1,30.3,30.15,WNW,292,2.9,3.1,30,0.00,,,0.00,VWS V14.00,2013-03-28 15:57:00,
2013-03-28 08:58:00,62.1,31.1,30.15,WNW,292,2.9,2.9,31,0.00,,,0.00,VWS V14.00,2013-03-28 15:58:00,
2013-03-28 08:59:00,62.1,31.1,30.15,WNW,292,2.9,2.9,31,0.00,,,0.00,VWS V14.00,2013-03-28 15:59:00,
2013-03-28 09:00:00,62.4,31.4,30.15,WNW,292,2.9,2.9,31,0.00,,,0.00,VWS V14.00,2013-03-28 16:00:00,
2013-03-28 09:02:00,62.6,31.6,30.15,West,270,2.2,3.4,31,0.00,,,0.00,VWS V14.00,2013-03-28 16:02:00,
2013-03-28 09:03:00,62.4,31.4,30.15,West,270,2.2,2.2,31,0.00,,,0.00,VWS V14.00,2013-03-28 16:03:00,
2013-03-28 09:04:00,62.4,31.4,30.15,West,270,2.2,2.2,31,0.00,,,0.00,VWS V14.00,2013-03-28 16:04:00,
2013-03-28 09:05:00,62.2,32.0,30.15,NW,315,4.0,4.0,32,0.00,,,0.00,VWS V14.00,2013-03-28 16:05:00,
2013-03-28 09:06:00,62.2,32.0,30.15,NW,315,4.0,4.0,32,0.00,,,0.00,VWS V14.00,2013-03-28 16:06:00,
2013-03-28 09:07:00,62.2,32.0,30.15,NW,315,4.0,4.0,32,0.00,,,0.00,VWS V14.00,2013-03-28 16:07:00,
2013-03-28 09:08:00,61.9,30.9,30.15,NW,315,4.0,4.0,31,0.00,,,0.00,VWS V14.00,2013-03-28 16:08:00,
2013-03-28 09:09:00,61.9,30.9,30.15,NW,315,4.0,4.0,31,0.00,,,0.00,VWS V14.00,2013-03-28 16:09:00,
2013-03-28 09:10:00,61.7,30.8,30.15,NW,315,4.0,4.0,31,0.00,,,0.00,VWS V14.00,2013-03-28 16:10:00,
2013-03-28 09:11:00,61.7,30.8,30.15,NW,315,4.0,4.0,31,0.00,,,0.00,VWS V14.00,2013-03-28 16:11:00,
2013-03-28 09:12:00,61.5,31.4,30.15,NW,315,4.0,4.0,32,0.00,,,0.00,VWS V14.00,2013-03-28 16:12:00,
2013-03-28 09:13:00,61.5,31.4,30.15,NW,315,4.0,4.0,32,0.00,,,0.00,VWS V14.00,2013-03-28 16:13:00,
2013-03-28 09:14:00,61.9,31.7,30.15,WSW,248,2.9,4.0,32,0.00,,,0.00,VWS V14.00,2013-03-28 16:14:00,
2013-03-28 09:15:00,62.1,31.1,30.15,WSW,248,2.9,2.9,31,0.00,,,0.00,VWS V14.00,2013-03-28 16:15:00,
2013-03-28 09:16:00,62.1,31.1,30.15,WSW,248,2.9,2.9,31,0.00,,,0.00,VWS V14.00,2013-03-28 16:16:00,
2013-03-28 09:17:00,62.8,32.5,30.15,WSW,248,2.9,2.9,32,0.00,,,0.00,VWS V14.00,2013-03-28 16:17:00,
2013-03-28 09:18:00,62.8,32.5,30.15,WSW,248,2.9,2.9,32,0.00,,,0.00,VWS V14.00,2013-03-28 16:18:00,
2013-03-28 09:19:00,63.1,32.8,30.15,WSW,248,2.9,2.9,32,0.00,,,0.00,VWS V14.00,2013-03-28 16:19:00,
2013-03-28 09:20:00,63.1,32.8,30.15,WNW,292,6.3,6.3,32,0.00,,,0.00,VWS V14.00,2013-03-28 16:20:00,
2013-03-28 09:21:00,63.1,32.0,30.15,WNW,292,6.3,6.3,31,0.00,,,0.00,VWS V14.00,2013-03-28 16:21:00,
2013-03-28 09:22:00,63.1,32.0,30.15,WNW,292,6.3,6.3,31,0.00,,,0.00,VWS V14.00,2013-03-28 16:22:00,
2013-03-28 09:23:00,63.5,33.1,30.15,WNW,292,6.3,6.3,32,0.00,,,0.00,VWS V14.00,2013-03-28 16:23:00,
2013-03-28 09:24:00,63.1,32.0,30.15,WNW,292,6.3,6.3,31,0.00,,,0.00,VWS V14.00,2013-03-28 16:24:00,
2013-03-28 09:25:00,63.1,32.0,30.15,WNW,292,6.3,6.3,31,0.00,,,0.00,VWS V14.00,2013-03-28 16:25:00,
2013-03-28 09:26:00,63.3,32.2,30.15,WSW,248,3.1,6.3,31,0.00,,,0.00,VWS V14.00,2013-03-28 16:26:00,
2013-03-28 09:27:00,63.3,32.2,30.15,WSW,248,3.1,3.1,31,0.00,,,0.00,VWS V14.00,2013-03-28 16:27:00,
2013-03-28 09:28:00,63.5,33.1,30.15,WSW,248,3.1,3.1,32,0.00,,,0.00,VWS V14.00,2013-03-28 16:28:00,
2013-03-28 09:29:00,63.5,33.1,30.15,WSW,248,3.1,3.1,32,0.00,,,0.00,VWS V14.00,2013-03-28 16:29:00,
2013-03-28 09:30:00,63.5,33.1,30.15,WSW,248,3.1,3.1,32,0.00,,,0.00,VWS V14.00,2013-03-28 16:30:00,
2013-03-28 09:31:00,63.5,33.1,30.15,WSW,248,3.1,3.1,32,0.00,,,0.00,VWS V14.00,2013-03-28 16:31:00,
2013-03-28 09:32:00,63.5,33.1,30.15,WSW,248,3.1,3.1,32,0.00,,,0.00,VWS V14.00,2013-03-28 16:32:00,
2013-03-28 09:33:00,63.1,32.0,30.15,WSW,248,5.6,5.6,31,0.00,,,0.00,VWS V14.00,2013-03-28 16:33:00,
2013-03-28 09:34:00,63.1,32.0,30.15,SSW,202,4.7,5.6,31,0.00,,,0.00,VWS V14.00,2013-03-28 16:34:00,
2013-03-28 09:35:00,63.1,32.0,30.15,West,270,2.5,2.5,31,0.00,,,0.00,VWS V14.00,2013-03-28 16:35:00,
2013-03-28 09:36:00,63.1,32.0,30.15,NNW,338,3.4,3.4,31,0.00,,,0.00,VWS V14.00,2013-03-28 16:36:00,
2013-03-28 09:37:00,63.1,32.8,30.15,NNW,338,3.4,3.4,32,0.00,,,0.00,VWS V14.00,2013-03-28 16:37:00,
2013-03-28 09:38:00,63.1,32.8,30.15,NNW,338,3.4,3.4,32,0.00,,,0.00,VWS V14.00,2013-03-28 16:38:00,
2013-03-28 09:39:00,63.1,32.8,30.15,NNW,338,3.4,3.4,32,0.00,,,0.00,VWS V14.00,2013-03-28 16:39:00,
2013-03-28 09:40:00,63.3,33.0,30.15,WSW,248,4.3,4.3,32,0.00,,,0.00,VWS V14.00,2013-03-28 16:40:00,
2013-03-28 09:41:00,63.3,33.0,30.15,WNW,292,3.1,4.3,32,0.00,,,0.00,VWS V14.00,2013-03-28 16:41:00,
2013-03-28 09:42:00,63.7,33.3,30.15,WNW,292,3.1,3.1,32,0.00,,,0.00,VWS V14.00,2013-03-28 16:42:00,
2013-03-28 09:43:00,63.7,33.3,30.15,SSW,202,2.7,3.1,32,0.00,,,0.00,VWS V14.00,2013-03-28 16:43:00,
2013-03-28 09:44:00,64.0,33.6,30.15,NW,315,5.4,5.4,32,0.00,,,0.00,VWS V14.00,2013-03-28 16:44:00,
2013-03-28 09:45:00,64.2,33.8,30.15,WSW,248,4.7,4.7,32,0.00,,,0.00,VWS V14.00,2013-03-28 16:45:00,
2013-03-28 09:46:00,64.2,33.8,30.15,WSW,248,4.7,4.7,32,0.00,,,0.00,VWS V14.00,2013-03-28 16:46:00,
2013-03-28 09:47:00,64.2,33.8,30.15,West,270,2.9,4.7,32,0.00,,,0.00,VWS V14.00,2013-03-28 16:47:00,
2013-03-28 09:48:00,64.2,33.8,30.15,West,270,2.9,2.9,32,0.00,,,0.00,VWS V14.00,2013-03-28 16:48:00,
2013-03-28 09:49:00,64.9,34.4,30.15,West,270,4.9,4.9,32,0.00,,,0.00,VWS V14.00,2013-03-28 16:49:00,
2013-03-28 09:50:00,64.9,34.4,30.15,West,270,4.9,4.9,32,0.00,,,0.00,VWS V14.00,2013-03-28 16:50:00,
2013-03-28 09:51:00,64.9,34.4,30.15,West,270,4.9,4.9,32,0.00,,,0.00,VWS V14.00,2013-03-28 16:51:00,
2013-03-28 09:52:00,64.9,34.4,30.15,West,270,4.9,4.9,32,0.00,,,0.00,VWS V14.00,2013-03-28 16:52:00,
2013-03-28 09:53:00,65.5,34.9,30.15,West,270,4.9,4.9,32,0.00,,,0.00,VWS V14.00,2013-03-28 16:53:00,
2013-03-28 09:54:00,65.8,34.4,30.15,West,270,4.9,4.9,31,0.00,,,0.00,VWS V14.00,2013-03-28 16:54:00,
2013-03-28 09:55:00,65.8,34.4,30.15,West,270,4.9,4.9,31,0.00,,,0.00,VWS V14.00,2013-03-28 16:55:00,
2013-03-28 09:56:00,65.8,33.6,30.15,West,270,4.9,4.9,30,0.00,,,0.00,VWS V14.00,2013-03-28 16:56:00,
2013-03-28 09:57:00,65.8,33.6,30.15,West,270,4.9,4.9,30,0.00,,,0.00,VWS V14.00,2013-03-28 16:57:00,
2013-03-28 09:58:00,65.8,34.4,30.15,West,270,4.9,4.9,31,0.00,,,0.00,VWS V14.00,2013-03-28 16:58:00,
2013-03-28 09:59:00,65.8,34.4,30.15,West,270,4.9,4.9,31,0.00,,,0.00,VWS V14.00,2013-03-28 16:59:00,
2013-03-28 10:00:00,65.7,33.4,30.15,West,270,4.9,4.9,30,0.00,,,0.00,VWS V14.00,2013-03-28 17:00:00,
2013-03-28 10:01:00,65.5,34.1,30.15,West,270,4.9,4.9,31,0.00,,,0.00,VWS V14.00,2013-03-28 17:01:00,
2013-03-28 10:02:00,65.5,34.1,30.15,West,270,4.9,4.9,31,0.00,,,0.00,VWS V14.00,2013-03-28 17:02:00,
2013-03-28 10:03:00,65.1,33.8,30.15,West,270,4.9,4.9,31,0.00,,,0.00,VWS V14.00,2013-03-28 17:03:00,
2013-03-28 10:04:00,65.1,33.8,30.15,West,270,4.9,4.9,31,0.00,,,0.00,VWS V14.00,2013-03-28 17:04:00,
2013-03-28 10:05:00,64.9,32.8,30.15,West,270,4.9,4.9,30,0.00,,,0.00,VWS V14.00,2013-03-28 17:05:00,
2013-03-28 10:06:00,64.9,32.8,30.15,West,270,4.9,4.9,30,0.00,,,0.00,VWS V14.00,2013-03-28 17:06:00,
2013-03-28 10:07:00,64.8,33.5,30.15,West,270,4.9,4.9,31,0.00,,,0.00,VWS V14.00,2013-03-28 17:07:00,
2013-03-28 10:08:00,64.8,33.5,30.15,West,270,4.9,4.9,31,0.00,,,0.00,VWS V14.00,2013-03-28 17:08:00,
2013-03-28 10:09:00,64.8,33.5,30.15,West,270,4.9,4.9,31,0.00,,,0.00,VWS V14.00,2013-03-28 17:09:00,
2013-03-28 10:10:00,64.6,32.5,30.15,West,270,4.9,4.9,30,0.00,,,0.00,VWS V14.00,2013-03-28 17:10:00,
2013-03-28 10:11:00,64.6,32.5,30.15,West,270,4.9,4.9,30,0.00,,,0.00,VWS V14.00,2013-03-28 17:11:00,
2013-03-28 10:12:00,65.3,33.9,30.15,West,270,4.9,4.9,31,0.00,,,0.00,VWS V14.00,2013-03-28 17:12:00,
2013-03-28 10:13:00,65.3,33.9,30.15,West,270,4.9,4.9,31,0.00,,,0.00,VWS V14.00,2013-03-28 17:13:00,
2013-03-28 10:14:00,65.7,34.2,30.15,West,270,4.9,4.9,31,0.00,,,0.00,VWS V14.00,2013-03-28 17:14:00,
2013-03-28 10:15:00,65.7,34.2,30.15,West,270,4.9,4.9,31,0.00,,,0.00,VWS V14.00,2013-03-28 17:15:00,
2013-03-28 10:16:00,66.4,34.9,30.15,West,270,4.9,4.9,31,0.00,,,0.00,VWS V14.00,2013-03-28 17:16:00,
2013-03-28 10:17:00,67.1,35.5,30.15,West,270,4.9,4.9,31,0.00,,,0.00,VWS V14.00,2013-03-28 17:17:00,
2013-03-28 10:18:00,67.1,35.5,30.15,West,270,4.9,4.9,31,0.00,,,0.00,VWS V14.00,2013-03-28 17:18:00,
2013-03-28 10:19:00,66.4,34.0,30.15,West,270,4.9,4.9,30,0.00,,,0.00,VWS V14.00,2013-03-28 17:19:00,
2013-03-28 10:20:00,66.0,33.7,30.15,West,270,4.9,4.9,30,0.00,,,0.00,VWS V14.00,2013-03-28 17:20:00,
2013-03-28 10:21:00,66.0,33.7,30.15,West,270,4.9,4.9,30,0.00,,,0.00,VWS V14.00,2013-03-28 17:21:00,
2013-03-28 10:22:00,66.0,33.7,30.15,West,270,2.9,4.9,30,0.00,,,0.00,VWS V14.00,2013-03-28 17:22:00,
2013-03-28 10:23:00,65.8,33.6,30.15,West,270,2.9,2.9,30,0.00,,,0.00,VWS V14.00,2013-03-28 17:23:00,
2013-03-28 10:24:00,66.0,33.7,30.15,West,270,2.9,2.9,30,0.00,,,0.00,VWS V14.00,2013-03-28 17:24:00,
2013-03-28 10:25:00,66.0,33.7,30.15,West,270,2.9,2.9,30,0.00,,,0.00,VWS V14.00,2013-03-28 17:25:00,
2013-03-28 10:26:00,65.8,34.4,30.15,West,270,2.9,2.9,31,0.00,,,0.00,VWS V14.00,2013-03-28 17:26:00,
2013-03-28 10:27:00,65.8,34.4,30.15,West,270,2.9,2.9,31,0.00,,,0.00,VWS V14.00,2013-03-28 17:27:00,
2013-03-28 10:28:00,65.7,33.4,30.15,West,270,2.9,2.9,30,0.00,,,0.00,VWS V14.00,2013-03-28 17:28:00,
2013-03-28 10:29:00,65.7,33.4,30.15,West,270,2.9,2.9,30,0.00,,,0.00,VWS V14.00,2013-03-28 17:29:00,
2013-03-28 10:30:00,65.3,33.1,30.15,West,270,2.9,2.9,30,0.00,,,0.00,VWS V14.00,2013-03-28 17:30:00,
2013-03-28 10:35:00,66.6,34.2,30.15,West,270,4.5,4.5,30,0.00,,,0.00,VWS V14.00,2013-03-28 17:35:00,
2013-03-28 10:40:00,66.9,34.5,30.15,West,270,4.5,4.5,30,0.00,,,0.00,VWS V14.00,2013-03-28 17:40:00,
2013-03-28 10:45:00,67.3,34.8,30.15,WNW,292,3.1,3.1,30,0.00,,,0.00,VWS V14.00,2013-03-28 17:45:00,
2013-03-28 10:50:00,66.9,33.7,30.15,WSW,248,2.5,2.5,29,0.00,,,0.00,VWS V14.00,2013-03-28 17:50:00,
2013-03-28 10:55:00,67.1,33.8,30.15,NW,315,5.6,5.6,29,0.00,,,0.00,VWS V14.00,2013-03-28 17:55:00,
2013-03-28 11:00:00,67.5,34.1,30.15,North,0,3.1,3.8,29,0.00,,,0.00,VWS V14.00,2013-03-28 18:00:00,
2013-03-28 11:05:00,67.1,33.8,30.15,North,0,3.1,3.1,29,0.00,,,0.00,VWS V14.00,2013-03-28 18:05:00,
2013-03-28 11:10:00,68.0,33.7,30.15,WNW,292,3.1,3.1,28,0.00,,,0.00,VWS V14.00,2013-03-28 18:10:00,
2013-03-28 11:15:00,68.0,33.7,30.15,West,270,3.8,3.8,28,0.00,,,0.00,VWS V14.00,2013-03-28 18:15:00,
2013-03-28 11:21:00,67.6,34.3,30.15,West,270,3.8,3.8,29,0.00,,,0.00,VWS V14.00,2013-03-28 18:21:00,
2013-03-28 11:26:00,67.8,33.5,30.15,WNW,292,3.1,3.8,28,0.00,,,0.00,VWS V14.00,2013-03-28 18:26:00,
2013-03-28 11:31:00,67.8,33.5,30.15,WNW,292,5.4,5.6,28,0.00,,,0.00,VWS V14.00,2013-03-28 18:31:00,
2013-03-28 11:36:00,67.8,33.5,30.15,NW,315,3.8,3.8,28,0.00,,,0.00,VWS V14.00,2013-03-28 18:36:00,
2013-03-28 11:41:00,68.5,33.3,30.15,NW,315,4.3,4.3,27,0.00,,,0.00,VWS V14.00,2013-03-28 18:41:00,
2013-03-28 11:46:00,68.0,32.8,30.15,WNW,292,3.6,3.6,27,0.00,,,0.00,VWS V14.00,2013-03-28 18:46:00,
2013-03-28 11:51:00,68.2,33.0,30.15,West,270,4.9,4.9,27,0.00,,,0.00,VWS V14.00,2013-03-28 18:51:00,
2013-03-28 11:56:00,68.9,33.6,30.15,West,270,5.8,5.8,27,0.00,,,0.00,VWS V14.00,2013-03-28 18:56:00,
2013-03-28 12:01:00,68.4,32.2,30.15,WSW,248,3.8,3.8,26,0.00,,,0.00,VWS V14.00,2013-03-28 19:01:00,
2013-03-28 12:06:00,68.4,34.0,30.15,WSW,248,4.3,4.3,28,0.00,,,0.00,VWS V14.00,2013-03-28 19:06:00,
2013-03-28 12:11:00,68.4,34.0,30.15,NW,315,3.1,3.1,28,0.00,,,0.00,VWS V14.00,2013-03-28 19:11:00,
2013-03-28 12:16:00,67.6,33.4,30.15,WNW,292,5.6,7.8,28,0.00,,,0.00,VWS V14.00,2013-03-28 19:16:00,
2013-03-28 12:21:00,68.4,34.0,30.15,NW,315,3.4,3.4,28,0.00,,,0.00,VWS V14.00,2013-03-28 19:21:00,
2013-03-28 12:26:00,68.7,34.3,30.15,NW,315,5.4,5.4,28,0.00,,,0.00,VWS V14.00,2013-03-28 19:26:00,
2013-03-28 12:31:00,67.8,33.5,30.15,West,270,2.0,2.0,28,0.00,,,0.00,VWS V14.00,2013-03-28 19:31:00,
2013-03-28 12:36:00,68.0,33.7,30.15,WNW,292,3.1,3.1,28,0.00,,,0.00,VWS V14.00,2013-03-28 19:36:00,
2013-03-28 12:41:00,68.5,34.2,30.15,West,270,3.4,3.4,28,0.00,,,0.00,VWS V14.00,2013-03-28 19:41:00,
2013-03-28 12:46:00,68.5,33.3,30.15,WSW,248,4.5,4.5,27,0.00,,,0.00,VWS V14.00,2013-03-28 19:46:00,
2013-03-28 12:51:00,68.0,32.8,30.15,WSW,248,3.6,3.6,27,0.00,,,0.00,VWS V14.00,2013-03-28 19:51:00,
2013-03-28 12:56:00,68.4,33.1,30.15,West,270,0.0,2.7,27,0.00,,,0.00,VWS V14.00,2013-03-28 19:56:00,
2013-03-28 13:01:00,67.8,33.5,30.15,West,270,3.8,3.8,28,0.00,,,0.00,VWS V14.00,2013-03-28 20:01:00,
2013-03-28 13:06:00,68.0,33.7,30.15,WSW,248,3.8,3.8,28,0.00,,,0.00,VWS V14.00,2013-03-28 20:06:00,
2013-03-28 13:11:00,68.2,33.9,30.15,WNW,292,4.9,4.9,28,0.00,,,0.00,VWS V14.00,2013-03-28 20:11:00,
2013-03-28 13:17:00,68.2,33.9,30.15,WNW,292,3.6,3.6,28,0.00,,,0.00,VWS V14.00,2013-03-28 20:17:00,
2013-03-28 13:22:00,68.7,34.3,30.15,WNW,292,3.1,3.1,28,0.00,,,0.00,VWS V14.00,2013-03-28 20:22:00,
2013-03-28 13:27:00,68.9,34.5,30.15,WSW,248,6.9,6.9,28,0.00,,,0.00,VWS V14.00,2013-03-28 20:27:00,
2013-03-28 13:32:00,68.4,34.0,30.15,NW,315,4.3,4.3,28,0.00,,,0.00,VWS V14.00,2013-03-28 20:32:00,
2013-03-28 13:37:00,68.9,34.5,30.15,West,270,6.3,6.3,28,0.00,,,0.00,VWS V14.00,2013-03-28 20:37:00,
2013-03-28 13:42:00,68.9,34.5,30.15,WNW,292,3.8,3.8,28,0.00,,,0.00,VWS V14.00,2013-03-28 20:42:00,
2013-03-28 13:47:00,68.5,34.2,30.15,West,270,6.0,6.0,28,0.00,,,0.00,VWS V14.00,2013-03-28 20:47:00,
2013-03-28 13:52:00,68.5,34.2,30.15,West,270,6.0,6.0,28,0.00,,,0.00,VWS V14.00,2013-03-28 20:52:00,
2013-03-28 13:57:00,69.1,35.5,30.15,West,270,6.0,6.0,29,0.00,,,0.00,VWS V14.00,2013-03-28 20:57:00,
2013-03-28 14:02:00,68.9,35.4,30.15,NW,315,5.4,5.4,29,0.00,,,0.00,VWS V14.00,2013-03-28 21:02:00,
2013-03-28 14:07:00,68.4,34.9,30.15,North,0,4.0,4.0,29,0.00,,,0.00,VWS V14.00,2013-03-28 21:07:00,
2013-03-28 14:12:00,68.5,35.0,30.15,North,0,4.0,4.0,29,0.00,,,0.00,VWS V14.00,2013-03-28 21:12:00,
2013-03-28 14:17:00,68.0,34.6,30.15,North,0,4.0,4.0,29,0.00,,,0.00,VWS V14.00,2013-03-28 21:17:00,
2013-03-28 14:22:00,68.0,34.6,30.15,WNW,292,4.9,4.9,29,0.00,,,0.00,VWS V14.00,2013-03-28 21:22:00,
2013-03-28 14:27:00,67.6,34.3,30.15,WNW,292,4.9,4.9,29,0.00,,,0.00,VWS V14.00,2013-03-28 21:27:00,
2013-03-28 14:32:00,67.3,34.0,30.15,WNW,292,4.9,4.9,29,0.00,,,0.00,VWS V14.00,2013-03-28 21:32:00,
2013-03-28 14:37:00,67.8,35.3,30.15,WNW,292,4.9,4.9,30,0.00,,,0.00,VWS V14.00,2013-03-28 21:37:00,
2013-03-28 14:42:00,67.3,34.0,30.15,WNW,292,4.3,4.3,29,0.00,,,0.00,VWS V14.00,2013-03-28 21:42:00,
2013-03-28 14:47:00,67.3,34.0,30.12,West,270,4.9,4.9,29,0.00,,,0.00,VWS V14.00,2013-03-28 21:47:00,
2013-03-28 14:52:00,67.1,33.8,30.12,WSW,248,4.3,4.3,29,0.00,,,0.00,VWS V14.00,2013-03-28 21:52:00,
2013-03-28 14:58:00,67.1,33.8,30.12,West,270,4.0,4.0,29,0.00,,,0.00,VWS V14.00,2013-03-28 21:58:00,
2013-03-28 15:03:00,67.5,35.8,30.12,NW,315,2.7,2.7,31,0.00,,,0.00,VWS V14.00,2013-03-28 22:03:00,
2013-03-28 15:08:00,67.5,35.0,30.12,WSW,248,6.3,6.3,30,0.00,,,0.00,VWS V14.00,2013-03-28 22:08:00,
2013-03-28 15:13:00,67.6,35.1,30.12,NW,315,4.9,5.4,30,0.00,,,0.00,VWS V14.00,2013-03-28 22:13:00,
2013-03-28 15:18:00,67.5,35.8,30.15,West,270,8.7,8.7,31,0.00,,,0.00,VWS V14.00,2013-03-28 22:18:00,
2013-03-28 15:23:00,66.7,35.2,30.15,West,270,3.8,4.9,31,0.00,,,0.00,VWS V14.00,2013-03-28 22:23:00,
2013-03-28 15:28:00,66.7,36.8,30.15,West,270,5.4,5.4,33,0.00,,,0.00,VWS V14.00,2013-03-28 22:28:00,
2013-03-28 15:33:00,66.4,36.4,30.15,West,270,4.0,4.0,33,0.00,,,0.00,VWS V14.00,2013-03-28 22:33:00,
2013-03-28 15:38:00,66.7,36.8,30.15,WNW,292,4.9,4.9,33,0.00,,,0.00,VWS V14.00,2013-03-28 22:38:00,
2013-03-28 15:43:00,66.6,36.6,30.15,NW,315,5.4,5.4,33,0.00,,,0.00,VWS V14.00,2013-03-28 22:43:00,
2013-03-28 15:48:00,66.7,36.8,30.15,WSW,248,3.4,3.4,33,0.00,,,0.00,VWS V14.00,2013-03-28 22:48:00,
2013-03-28 15:53:00,65.3,36.2,30.15,West,270,3.8,3.8,34,0.00,,,0.00,VWS V14.00,2013-03-28 22:53:00,
2013-03-28 15:58:00,65.1,36.1,30.15,WNW,292,4.9,4.9,34,0.00,,,0.00,VWS V14.00,2013-03-28 22:58:00,
2013-03-28 16:03:00,65.1,36.8,30.15,West,270,3.4,3.4,35,0.00,,,0.00,VWS V14.00,2013-03-28 23:03:00,
2013-03-28 16:08:00,65.5,37.1,30.15,West,270,7.2,7.2,35,0.00,,,0.00,VWS V14.00,2013-03-28 23:08:00,
2013-03-28 16:13:00,64.9,37.4,30.15,West,270,4.3,4.3,36,0.00,,,0.00,VWS V14.00,2013-03-28 23:13:00,
2013-03-28 16:18:00,65.1,37.5,30.15,West,270,6.9,6.9,36,0.00,,,0.00,VWS V14.00,2013-03-28 23:18:00,
2013-03-28 16:23:00,64.8,37.2,30.15,WSW,248,4.3,4.3,36,0.00,,,0.00,VWS V14.00,2013-03-28 23:23:00,
2013-03-28 16:28:00,65.1,37.5,30.15,NW,315,3.6,4.3,36,0.00,,,0.00,VWS V14.00,2013-03-28 23:28:00,
2013-03-28 16:33:00,64.8,37.2,30.15,WSW,248,4.3,4.3,36,0.00,,,0.00,VWS V14.00,2013-03-28 23:33:00,
2013-03-28 16:38:00,64.4,36.9,30.15,West,270,5.4,5.4,36,0.00,,,0.00,VWS V14.00,2013-03-28 23:38:00,
2013-03-28 16:43:00,63.7,36.2,30.15,WNW,292,3.6,3.6,36,0.00,,,0.00,VWS V14.00,2013-03-28 23:43:00,
2013-03-28 16:48:00,63.0,35.6,30.15,West,270,3.4,3.4,36,0.00,,,0.00,VWS V14.00,2013-03-28 23:48:00,
2013-03-28 16:53:00,62.8,36.2,30.15,WNW,292,5.8,5.8,37,0.00,,,0.00,VWS V14.00,2013-03-28 23:53:00,
2013-03-28 16:58:00,62.6,36.7,30.15,WSW,248,4.9,4.9,38,0.00,,,0.00,VWS V14.00,2013-03-28 23:58:00,
2013-03-28 17:03:00,63.0,37.0,30.12,WSW,248,4.9,4.9,38,0.00,,,0.00,VWS V14.00,2013-03-29 00:03:00,
2013-03-28 17:08:00,62.8,36.8,30.12,WSW,248,4.9,4.9,38,0.00,,,0.00,VWS V14.00,2013-03-29 00:08:00,
2013-03-28 17:13:00,63.0,37.0,30.12,WSW,248,4.9,4.9,38,0.00,,,0.00,VWS V14.00,2013-03-29 00:13:00,
2013-03-28 17:18:00,62.6,36.7,30.15,WSW,248,4.9,4.9,38,0.00,,,0.00,VWS V14.00,2013-03-29 00:18:00,
2013-03-28 17:23:00,62.4,36.5,30.15,WSW,248,3.8,3.8,38,0.00,,,0.00,VWS V14.00,2013-03-29 00:23:00,
2013-03-28 17:28:00,62.2,36.3,30.15,WSW,248,3.8,3.8,38,0.00,,,0.00,VWS V14.00,2013-03-29 00:28:00,
2013-03-28 17:33:00,62.2,36.3,30.12,WSW,248,3.8,3.8,38,0.00,,,0.00,VWS V14.00,2013-03-29 00:33:00,
2013-03-28 17:38:00,62.2,36.3,30.12,West,270,4.9,4.9,38,0.00,,,0.00,VWS V14.00,2013-03-29 00:38:00,
2013-03-28 17:43:00,61.9,35.3,30.12,West,270,4.7,4.7,37,0.00,,,0.00,VWS V14.00,2013-03-29 00:43:00,
2013-03-28 17:48:00,61.5,35.7,30.15,West,270,3.1,3.1,38,0.00,,,0.00,VWS V14.00,2013-03-29 00:48:00,
2013-03-28 17:53:00,61.0,34.5,30.15,West,270,4.0,4.0,37,0.00,,,0.00,VWS V14.00,2013-03-29 00:53:00,
2013-03-28 17:58:00,60.3,33.9,30.15,WSW,248,3.1,3.1,37,0.00,,,0.00,VWS V14.00,2013-03-29 00:58:00,
2013-03-28 18:03:00,59.7,33.4,30.15,WSW,248,3.1,3.4,37,0.00,,,0.00,VWS V14.00,2013-03-29 01:03:00,
2013-03-28 18:08:00,59.4,33.1,30.15,West,270,3.6,3.8,37,0.00,,,0.00,VWS V14.00,2013-03-29 01:08:00,
2013-03-28 18:13:00,59.4,33.1,30.15,WSW,248,5.4,5.4,37,0.00,,,0.00,VWS V14.00,2013-03-29 01:13:00,
2013-03-28 18:18:00,58.6,33.1,30.15,WSW,248,3.6,3.6,38,0.00,,,0.00,VWS V14.00,2013-03-29 01:18:00,
2013-03-28 18:23:00,57.9,33.1,30.15,WSW,248,3.8,3.8,39,0.00,,,0.00,VWS V14.00,2013-03-29 01:23:00,
2013-03-28 18:28:00,57.4,32.7,30.15,West,270,2.7,2.7,39,0.00,,,0.00,VWS V14.00,2013-03-29 01:28:00,
2013-03-28 18:33:00,56.8,32.8,30.15,West,270,4.3,4.3,40,0.00,,,0.00,VWS V14.00,2013-03-29 01:33:00,
2013-03-28 18:38:00,56.5,32.5,30.15,West,270,3.6,3.6,40,0.00,,,0.00,VWS V14.00,2013-03-29 01:38:00,
2013-03-28 18:44:00,56.1,32.2,30.15,West,270,3.8,3.8,40,0.00,,,0.00,VWS V14.00,2013-03-29 01:44:00,
2013-03-28 18:49:00,55.9,32.6,30.15,West,270,3.1,3.1,41,0.00,,,0.00,VWS V14.00,2013-03-29 01:49:00,
2013-03-28 18:54:00,55.2,32.0,30.15,WSW,248,2.9,3.8,41,0.00,,,0.00,VWS V14.00,2013-03-29 01:54:00,
2013-03-28 18:59:00,55.0,32.4,30.15,West,270,3.4,3.4,42,0.00,,,0.00,VWS V14.00,2013-03-29 01:59:00,
2013-03-28 19:04:00,54.3,31.7,30.15,WSW,248,0.0,0.0,42,0.00,,,0.00,VWS V14.00,2013-03-29 02:04:00,
2013-03-28 19:09:00,54.0,32.0,30.15,West,270,2.7,2.7,43,0.00,,,0.00,VWS V14.00,2013-03-29 02:09:00,
2013-03-28 19:14:00,53.8,32.4,30.15,WSW,248,2.5,3.6,44,0.00,,,0.00,VWS V14.00,2013-03-29 02:14:00,
2013-03-28 19:19:00,53.4,32.1,30.15,West,270,1.3,1.3,44,0.00,,,0.00,VWS V14.00,2013-03-29 02:19:00,
2013-03-28 19:24:00,53.1,32.3,30.15,WSW,248,1.6,1.6,45,0.00,,,0.00,VWS V14.00,2013-03-29 02:24:00,
2013-03-28 19:29:00,52.5,31.8,30.15,West,270,2.5,2.5,45,0.00,,,0.00,VWS V14.00,2013-03-29 02:29:00,
2013-03-28 19:34:00,53.1,32.8,30.15,West,270,2.0,2.7,46,0.00,,,0.00,VWS V14.00,2013-03-29 02:34:00,
2013-03-28 19:39:00,52.7,32.5,30.15,WSW,248,2.5,2.5,46,0.00,,,0.00,VWS V14.00,2013-03-29 02:39:00,
2013-03-28 19:44:00,52.5,32.3,30.15,SW,225,1.3,1.3,46,0.00,,,0.00,VWS V14.00,2013-03-29 02:44:00,
2013-03-28 19:49:00,52.2,32.0,30.15,WNW,292,1.3,2.2,46,0.00,,,0.00,VWS V14.00,2013-03-29 02:49:00,
2013-03-28 19:54:00,52.2,32.0,30.15,WSW,248,2.2,2.2,46,0.00,,,0.00,VWS V14.00,2013-03-29 02:54:00,